World > North America > United States > New York

Hourly Pope Mills, NY Regional Weather

Feedback E-mail the Weather

Latest News

Pope Mills, NY Weather Maps

°F °C°F °C
Pope Mills Weather Map
UTC Time: 5/23/2022, 03:31
Your Time:

Pope Mills, NY Regional Weather

Expires:202205230400;;423456
ASUS41 KBTV 230330
RWRBTV
VERMONT REGIONAL WEATHER ROUNDUP
NATIONAL WEATHER SERVICE BURLINGTON VT
1100 PM EDT SUN MAY 22 2022

NOTE: "FAIR" INDICATES FEW OR NO CLOUDS BELOW 12,000 FEET WITH NO 
SIGNIFICANT WEATHER AND/OR OBSTRUCTIONS TO VISIBILITY.

* THESE REPORTS ARE NOT UNDER NWS QUALITY CONTROL AND/OR DO NOT
  REPORT WEATHER SUCH AS PRECIPITATION AND FOG.


NYZ007-026>031-035-052-083-087-230400-
_____NORTHERN NEW YORK_
  
CITY           SKY/WX    TMP DP  RH WIND       PRES   REMARKS
PLATTSBURGH    MOCLDY    56  47  71 NW15G21   30.14R                  
SARANAC LAKE   CLOUDY    49  46  90 VRB5      30.17R                  
MASSENA        CLOUDY    52  48  86 CALM      30.20R                  
OGDENSBURG*    MOCLDY    50  48  93 CALM      30.19R                  
POTSDAM*       MOCLDY    48  46  93 SW3       30.20S                  
WATERTOWN      MOCLDY    53  50  89 E3        30.21R                  
FT DRUM        CLOUDY    51  49  94 N5        30.20R                  
ALBANY         CLOUDY    62  55  77 W15G26    30.09R                  
GLENS FALLS    MOCLDY    64  53  67 NW14G29   30.06R                  

$$

SKY/WX - Weather  TMP - Temperature  DP - Dew Point  RH - Humidity
WIND - Wind Direction/Speed PRES - Barometric Pressure VSB - Visibility
WCI - Wind Chill Index E13G22 Wind - East Wind 13 mph/Gusts of 22 mph

Trending Headlines

Pope Mills Radar Loop



Pope Mills Quick Facts


National Two Day Weather Forecast


E-mail the Pope Mills Weather Forecast

Voice your opinion or tell us about page issues...